TimeCST,TemperatureF,Dew PointF,Humidity,Sea Level PressureIn,VisibilityMPH,Wind Direction,Wind SpeedMPH,Gust SpeedMPH,PrecipitationIn,Events,Conditions,WindDirDegrees,DateUTC
12:35 AM,37.0,32.0,82,29.62,10.0,WSW,20.7,35.7,N/A,,Overcast,250,2013-12-05 06:35:00
12:45 AM,37.0,32.0,82,29.63,10.0,WSW,23.0,31.1,N/A,,Overcast,250,2013-12-05 06:45:00
12:53 AM,37.0,32.0,82,29.66,10.0,WSW,24.2,28.8,N/A,,Overcast,250,2013-12-05 06:53:00
1:53 AM,35.1,30.0,82,29.70,10.0,West,19.6,29.9,N/A,,Overcast,260,2013-12-05 07:53:00
2:31 AM,34.0,28.9,82,29.70,10.0,West,20.7,26.5,N/A,,Overcast,260,2013-12-05 08:31:00
2:53 AM,33.1,28.0,82,29.73,10.0,WSW,20.7,-,N/A,,Overcast,250,2013-12-05 08:53:00
3:23 AM,33.1,27.0,78,29.74,10.0,WSW,21.9,29.9,N/A,,Overcast,250,2013-12-05 09:23:00
3:53 AM,32.0,26.1,79,29.76,10.0,WSW,27.6,32.2,N/A,,Overcast,250,2013-12-05 09:53:00
4:53 AM,30.9,25.0,79,29.80,10.0,West,18.4,-,N/A,,Overcast,260,2013-12-05 10:53:00
5:53 AM,30.0,23.0,75,29.82,10.0,West,18.4,28.8,N/A,,Overcast,260,2013-12-05 11:53:00
6:53 AM,28.9,21.0,72,29.86,10.0,West,23.0,33.4,N/A,,Mostly Cloudy,270,2013-12-05 12:53:00
7:53 AM,28.9,21.0,72,29.90,10.0,West,15.0,-,N/A,,Mostly Cloudy,260,2013-12-05 13:53:00
8:17 AM,28.0,21.0,75,29.90,10.0,West,19.6,27.6,N/A,,Scattered Clouds,260,2013-12-05 14:17:00
8:53 AM,27.0,18.0,69,29.95,10.0,West,18.4,28.8,N/A,,Scattered Clouds,270,2013-12-05 14:53:00
9:53 AM,27.0,18.0,69,29.97,10.0,West,17.3,-,N/A,,Partly Cloudy,260,2013-12-05 15:53:00
10:53 AM,27.0,15.1,61,30.00,10.0,West,21.9,27.6,N/A,,Clear,270,2013-12-05 16:53:00
11:53 AM,28.0,14.0,56,30.00,10.0,West,20.7,26.5,N/A,,Clear,270,2013-12-05 17:53:00
12:53 PM,27.0,12.9,56,30.02,10.0,WNW,18.4,28.8,N/A,,Clear,290,2013-12-05 18:53:00
1:53 PM,26.1,12.9,58,30.05,10.0,West,13.8,-,N/A,,Clear,280,2013-12-05 19:53:00
2:53 PM,25.0,12.0,58,30.08,10.0,West,15.0,-,N/A,,Clear,280,2013-12-05 20:53:00
3:53 PM,24.1,12.0,60,30.11,10.0,West,15.0,-,N/A,,Clear,260,2013-12-05 21:53:00
4:53 PM,24.1,12.0,60,30.13,10.0,West,13.8,-,N/A,,Clear,270,2013-12-05 22:53:00
5:53 PM,24.1,10.9,57,30.17,10.0,West,16.1,26.5,N/A,,Clear,280,2013-12-05 23:53:00
6:53 PM,23.0,10.9,60,30.18,10.0,West,16.1,-,N/A,,Clear,280,2013-12-06 00:53:00
7:53 PM,21.9,10.0,60,30.20,10.0,WNW,15.0,25.3,N/A,,Clear,290,2013-12-06 01:53:00
8:53 PM,21.0,9.0,60,30.22,10.0,WNW,12.7,23.0,N/A,,Clear,290,2013-12-06 02:53:00
9:53 PM,19.9,9.0,62,30.22,10.0,WNW,8.1,-,N/A,,Clear,300,2013-12-06 03:53:00
10:53 PM,19.0,9.0,65,30.25,10.0,WNW,12.7,20.7,N/A,,Clear,300,2013-12-06 04:53:00
11:53 PM,19.0,9.0,65,30.27,10.0,WNW,10.4,-,N/A,,Clear,300,2013-12-06 05:53:00